Tracking 18856 objects as of 12-Dec-2017
HD Live streaming from Space Station
objects crossing your sky now

SL-8 DEB

Track SL-8 DEB now!
10-day predictions


NORAD ID: 21250
Int'l Code: 1991-009BH
Perigee: 1,493.4 km
Apogee: 1,718.0 km
Inclination: 74.1 °
Period: 118.2 minutes
Semi major axis: 7976 km
RCS: 0.1024 m2 (medium)
Launch date: February 12, 1991
Source: Commonwealth of Independent States (former USSR) (CIS)
Launch site: PLESETSK MISSILE AND SPACE COMPLEX (PKMTR)

Note: This is SATELLITE DEBRIS
aabbcc
Your satellite tracking list
Your tracking list is empty




NASA's NSSDC Master Catalog

Two Line Element Set (TLE):
1 21250U 91009BH  17345.56949163 -.00000024 +00000-0 -98987-4 0  9995
2 21250 074.0586 186.5370 0140749 052.6884 337.7643 12.18619507190508
Source of the keplerian elements: AFSPC